{"data":{"norad_id":48410,"epoch":"2026-09-20T03:39:17.895744Z","epoch_age_seconds":63696,"freshness":"FRESH","line1":"1 48410U 21038BK  26263.15229046  .00001090  00000+0  46892-4 0  9991","line2":"2 48410  53.1580 111.5830 0001328  88.8948 271.2206 15.31701628297742","mean_motion":15.31701628,"eccentricity":0.0001328,"inclination_deg":53.158,"raan_deg":111.583,"arg_perigee_deg":88.8948,"mean_anomaly_deg":271.2206,"bstar":4.6892e-5,"rev_number":29774,"period_min":94.013088037274,"perigee_km":469.82561202617,"apogee_km":471.64467246715,"semimajor_km":6848.8721422467,"source":"CELESTRAK","updated_at":"2026-09-20T09:00:39.122263Z"}}